Regional Weather Roundup
Issued by NWS Wakefield, VA

Home | Current Version | Previous Version | Text Only | Print | Product List | Glossary Off
Versions: 1 2 3 4 5 6 7 8 9 10 11 12 13 14 15 16 17 18 19 20 21 22 23 24 25 26 27 28 29 30 31 32 33 34 35 36 37 38 39 40 41 42 43 44 45 46 47 48 49 50

000
ASUS41 KAKQ 051610
RWRAKQ

REGIONAL WEATHER ROUNDUP
NATIONAL WEATHER SERVICE WAKEFIELD VA
1100 AM EST THU MAR 05 2015

Note: "fair" indicates few or no clouds below 12,000 feet with no
significant weather and/or obstructions to visibility. * = Denotes
station may not report precipitation (e.g., rain,snow,etc.),
thunder or fog.

VAZ042-051-052>054-056-051700-
NORTHERN VIRGINIA

CITY           SKY/WX    TMP DP  RH WIND       PRES   REMARKS
WASH NATIONAL  LGT SNOW  34  28  80 N15       30.18R VSB 3/4 WCI  24
DULLES         SNOW      28  26  92 N10       30.18R VSB 1/2 WCI  19
FORT BELVOIR   LGT SNOW  32  28  86 NW8       30.18R FOG
QUANTICO       LGT SNOW  32  29  88 N17G25    30.19R FOG     WCI  21
FREDERICKSBRG* LGT SNOW  33  33  99 N12G20    30.15R WCI  24
STAFFORD*      LGT SNOW  31  32 100 CALM      30.21R
WARRENTON      LGT SNOW  31  31 100 N13       30.18R VSB 1   WCI  22
CULPEPER*      LGT SNOW  30  28  93 N10G16    30.19R VSB 3/4 WCI  21
MANASSAS*      LGT SNOW  30  30 100 N10       30.19R VSB 1   WCI  21
LEESBURG*      SNOW      30  30 100 N10       30.19R VSB 1/2 WCI  21
WINCHESTER     SNOW      30  25  80 NW8       30.18R VSB 1/2
FRONT ROYAL*   CLOUDY    28  27  93 NW6       30.17R VSB 1/4
LURAY*         SNOW      30  30 100 N5        30.16R VSB 1/4
$$

VAZ048-049-060>072-079>083-051700-
CENTRAL AND SOUTH CENTRAL VIRGINIA

CITY           SKY/WX    TMP DP  RH WIND       PRES   REMARKS
RICHMOND       SLEET     36  32  87 NE14      30.10R FOG
CHESTERFIELD*  CLOUDY    37  25  60 N12G18    30.10R
PETERSBURG*    LGT RAIN  39  38  96 NE12G20   30.07R
HANOVER        LGT RAIN  34  32  92 N12G18    30.13R FOG
TAPPAHANNOCK*  DRIZZLE   35  33  93 N7        30.11F
QUINTON*       CLOUDY    36  34  94 NE7       30.09R
CHARLOTTSVILLE MIX PCPN  32  30  92 NE8       30.12R VSB 3/4
GORDONSVILLE*  CLOUDY    31  28  90 N8G20     30.14R FOG
ORANGE*        LGT SNOW  32  32 100 N10G16    30.16R WCI  24
LOUISA*        MIX PCPN  32  30  93 N10G23    30.15R WCI  24
BUMPASS*       CLOUDY    32  31  95 N8        30.12R
FARMVILLE*     RAIN      37  37 100 N6        29.86R
CREWE*         CLOUDY    36  34  93 NE9       30.07R
FORT PICKETT*  CLOUDY    36  35  98 N9        30.07R
CHASE CITY*    CLOUDY    38  38 100 N13G18    30.06R
CLARKSVILLE*   CLOUDY    36  36 100 NE6G16    30.01S
SOUTH HILL*    CLOUDY    36  35  95 N9G17     30.08S
LAWRENCEVILLE* CLOUDY    37  36  97 NE8       30.03S
EMPORIA*       MIX PCPN  37  37 100 N9G17     30.06S
$$

VAZ088>098-051700-
SOUTHEAST VIRGINIA

CITY           SKY/WX    TMP DP  RH WIND       PRES   REMARKS
NORFOLK        LGT RAIN  35  33  92 N16G22    30.06S FOG
VIRGINIA BEACH LGT RAIN  38  36  92 N13       30.06S FOG
NORFOLK NAVAL  LGT RAIN  38  33  82 N22       30.09R FOG
WEST POINT*    CLOUDY    37  34  88 N7        30.12F
SALUDA*        CLOUDY    34  32  93 N9        30.09F
NEWPORT NEWS   LGT RAIN  38  34  85 NE12G21   30.08R
LANGLEY AFB    LGT RAIN  36  34  93 NE12G17   30.07S FOG
FORT EUSTIS    LGT RAIN  37  37 100 NE9G20    30.07R FOG
WILLIAMSBURG*  PTSUNNY   39  37  93 NE9       30.10R
HR EXEC AP*    CLOUDY    36  34  93 NE10G18   30.09S
FRANKLIN*      DRIZZLE   37  35  94 NE17G23   30.08R
WAKEFIELD      HVY RAIN  37  33  85 NE8G25    30.08R FOG
$$

VAZ020-022-025-037-045-051700-
WEST CENTRAL AND SOUTHWEST VIRGINIA

CITY           SKY/WX    TMP DP  RH WIND       PRES   REMARKS
STAUNTON*      LGT SNOW  29  27  92 NE10      30.13S VSB 1   WCI  20
WAYNESBORO*    CLOUDY    28  26  96 N10G20    30.09S VSB 1   WCI  18
HOT SPRINGS VA SNOW      26  26 100 CALM      29.91F VSB<1/4
LYNCHBURG      LGT RAIN  37  36  96 NE12      30.04R
DANVILLE       HVY RAIN  40  36  86 NE16      30.03R FOG
SOUTH BOSTON*  CLOUDY    38  36  92 NE8G16    30.05R
MARTINSVILLE   NOT AVBL
ROANOKE        LGT RAIN  39  36  89 NE6       30.03F
BLACKSBURG     RAIN      32  32  99 W3        30.02S
DUBLIN*        LGT SNOW  33  33 100 NW7       30.03R VSB 1
MARION*        RAIN      34  31  91 W7        30.04R
HILLSVILLE*    MIX PCPN  33  32  98 N12       29.99R WCI  24
RICHLANDS*     LGT SNOW  26  23  91 NW10      30.07R WCI  16
WISE*          SNOW      23  23 100 N5        30.11R VSB 1/2
ABINGDON*      MIX PCPN  33  32  95 NW3       30.09R
$$

MDZ021>025-VAZ099-100-051700-
SOUTHERN MARYLAND AND THE DELMARVA PENINSULA

CITY           SKY/WX    TMP DP  RH WIND       PRES   REMARKS
PATUXENT RIVER LGTSLEET  32  29  88 N15       30.12R FOG     WCI  22
BAY BRIDGE APT MIX PCPN  32  32 100 NW8       30.16R VSB 3/4
LEONARDTOWN    CLOUDY    32  32 100 N6        30.14F
DOVER          LGT SNOW  32  32 100 N9        30.13R FOG
GEORGETOWN     RAIN      33  32  96 N8        30.13R FOG
EASTON         LGT SNOW  34  34 100 N6        30.17R FOG
CAMBRIDGE      CLOUDY    34  32  93 N9        30.11S
SALISBURY      LGT RAIN  38  33  82 N10       30.09R
OCEAN CITY     LGT RAIN  35  33  92 N12G18    30.10R FOG
WALLOPS ISLAND LGT RAIN  35  34  96 NE15G21   30.09R FOG
ACCOMACK*      LGT RAIN  36  32  87 N10G18    30.08S
$$

NCZ012>017-030>032-051700-
NORTH CENTRAL AND EASTERN NORTH CAROLINA

CITY           SKY/WX    TMP DP  RH WIND       PRES   REMARKS
ROANOKE RAPIDS LGT RAIN  41  39  93 NE9G17    30.02R
RALEIGH        RAIN      46  42  86 NE15G25   29.96R FOG
ELIZABETH CITY LGT RAIN  40  37  89 NE16      30.05R
AHOSKIE*       NOT AVBL
EDENTON*       CLOUDY    41  40  95 NE13G18   30.02R
CURRITUCK*     DRIZZLE   39  38  93 N16G22    30.05S
KILL DEVIL HLS CLOUDY    38  38 100 N8G21     30.01R FOG
MANTEO         CLOUDY    39  37  93 N20G29    30.02R
CAPE HATTERAS  FOG       60  60 100 SW14      29.97S VSB 1/2
TARBORO*       RAIN      45  42  92 NE10G22   30.02R
GOLDSBORO      PTSUNNY   74  73  97 SW24G38   29.89S
WASHINGTON     PTSUNNY   52  48  86 NE13G18   29.96R
GREENVILLE     CLOUDY    54  50  87 N16       29.99R
NEW BERN       MOSUNNY   80  61  52 SW16G32   29.94F
WILMINGTON     MOSUNNY   72  62  71 SW16G24   29.97F
$$

VAZ048-051700-
ELSEWHERE

CITY           SKY/WX    TMP DP  RH WIND       PRES   REMARKS
HARRISBURG PA  LGT SNOW  23  18  81 N13       30.19R VSB 3/4 WCI  11
BALTIMORE      SNOW      31  29  92 NW12      30.14R VSB 1/2 WCI  22
ANNAPOLIS      LGT SNOW  32  30  92 N8        30.15R VSB 3/4
ANDREWS AFB    LGT SNOW  32  30  93 NW9       30.15R FOG
PHILADELPHIA   HVY SNOW  29  27  92 N15       30.16R VSB 1/4 WCI  18
HENDERSON NC   RAIN      38  36  92 NE15G24   29.99F
GREENSBORO     LGT RAIN  44  42  93 NE6G21    29.95R FOG
ROCKY MOUNT    LGT RAIN  46  44  93 NE14G25   29.98R FOG
$$

VAZ100-051700-
MARINE

STATION/POSITION TIME  TEMP    WIND        PRES    WAVE   SWELL
                       AIR SEA DIR/SP/G            HT/PER HT/PER
                 (UTC) (F)     (DEG/KT/KT) (MB)    (FT/S) (FT/S)
BRANDYWINE LGT   1600           40/ 13/ 15   N/A
CAPE MAY NJ      1600   33 35   30/  5/ 11 1019.0R
LEWES DE         1600   33 32   30/ 13/ 15 1019.3R
15NM E FENWICK I 1600   34 35              1017.9R   4/ 4
OCEAN-CITY-INLET 1600   34 33   20/  9/ 12 1018.4R
WACHAPREAGUE VA  1600   36 40   10/  8/ 13 1018.4F
THOMAS POINT MD  1600   31 32  350/ 14/ 16 1021.9R
COVE POINT MD    1600   31      10/ 15/ 17 1020.0F
SOLOMONS ISLAND  1600      33                N/A
BISHOPS HEAD MD  1600   33 36  360/  7/ 14 1018.8F
CAMBRIDGE MD     1600   32 32  350/  9/ 12 1020.1R
LEWISETTA VA     1600   33 35   10/  6/ 11 1019.6R
RAPPAHANNOCK LGT 1600          360/ 21/ 23 1019.1F
STINGRAY PT      1600   33      20/ 16/ 19   N/A
YORK RVR RNG VA  1600   35      30/ 19/ 21 1017.6S
YORKTOWN VA      1600   36 35   30/ 22/ 26 1018.0F
DOMINION TERM VA 1600   36      30/  7/ 18 1018.4S
KIPTOPEKE VA     1600      39   10/ 12/ 16   N/A
CHES BAY BRIDGE  1600   34 34  360/ 19/ 23 1017.9S
CAPE HENRY VA    1600   34     350/ 20/ 22 1016.7F
CHESAPEAKE LGHT  1500   36      10/ 23/ 25 1017.1S
WILLOUBY STN VA  1600   34      10/ 22/ 27 1018.9R
S CRANEY ISL VA  1600           20/ 22/ 26 1018.1R
CAPE HENRY BUOY  1500      36                N/A     4/ 5
1ST LANDING BUOY 1600   34     360/ 19/ 25 1017.8F
OFFSHORE WE BUOY 1600      37                N/A     6/ 6   2/11
64NM E OF VA BCH 1600   46 51   10/ 19/ 27 1015.2R   7/ 6   2/11
DUCK PIER NC     1600   37 36   10/ 17/ 19 1015.5F
44100 DUCK FRF   1600      38                N/A     5/ 5   2/11
44056 DUCK FRF   1600      35                N/A     5/ 5   2/11
OREGON INLET NC  1600   39 50  360/ 12/ 15 1015.9R
HATTERAS NC      1600   61 50  230/ 13/ 18 1015.1R
CAPE LOOKOUT NC  1600   63     230/ 10/ 13 1015.3R
$$


USA.gov is the U.S. government's official web portal to all federal, state and local government web resources and services.